Lake Charles, LA

4:35 PM CST on February 20, 2017 (GMT -0600)
Chennault International

Weather History for KCWF - November, 2012

Change the Weather History Date:

Thursday, November 1, 2012

  Actual Average Record
Temperature  
Mean Temperature 68 °F -  
Max Temperature 85 °F 74 °F 87 °F (2003)
Min Temperature 53 °F 58 °F 39 °F (2011)
Cooling Degree Days 4    
Growing Degree Days 18 (Base 50)    
Moisture  
Dew Point 60 °F    
Average Humidity 84    
Maximum Humidity 100    
Minimum Humidity 37    
Precipitation  
Precipitation 0.00 in - - ()
Sea Level Pressure  
Sea Level Pressure 30.03 in    
Wind  
Wind Speed 2 mph (SW)    
Max Wind Speed 12 mph    
Max Gust Speed -    
Visibility 6 miles    
Events Fog    
Averages and records for this station are not official NWS values.
T = Trace of Precipitation, MM = Missing Value Source: NWS Daily Summary

Daily Weather History Graph

Daily Weather History Graph

Search for Another Location

Airport or City:

Trip Planner

Search our weather history database for the weather conditions in past years. The results will help you decide how hot, cold, wet, or windy it might be!

Date:

Astronomy

Nov. 01, 2012 Rise Set
Actual Time 7:27 AM CDT 6:24 PM CDT
Civil Twilight 7:02 AM CDT 6:49 PM CDT
Nautical Twilight 6:33 AM CDT 7:17 PM CDT
Astronomical Twilight 6:05 AM CDT 7:45 PM CDT
Moon 8:31 PM CDT (11/1) 9:51 AM CDT (11/1)
Length of Visible Light 11h 47m
Length of Day
10h 57m
Waning Gibbous, 93% of the Moon is Illuminated
Nov 1
Waning Gibbous
Nov 6
Last Quarter
Nov 13
New
Nov 20
First Quarter
Nov 28
Full

Hourly Weather History & Observations

Time (CDT) Temp. Heat Index Dew Point Humidity Pressure Visibility Wind Dir Wind Speed Gust Speed Precip Events Conditions
12:15 AM 61.0 °F - 58.8 °F 93% 30.03 in 2.0 mi Calm Calm - N/A   Scattered Clouds
12:35 AM 61.0 °F - 59.2 °F 94% 30.02 in 0.5 mi Calm Calm - N/A   Unknown
12:55 AM 61.0 °F - 59.2 °F 94% 30.02 in 10.0 mi Calm Calm - N/A   Clear
1:15 AM 61.5 °F - 59.7 °F 94% 30.03 in 10.0 mi Calm Calm - N/A   Clear
1:35 AM 58.3 °F - 56.5 °F 94% 30.02 in 10.0 mi Calm Calm - N/A   Clear
1:55 AM 58.1 °F - 56.3 °F 94% 30.02 in 10.0 mi Calm Calm - N/A   Clear
2:15 AM 61.2 °F - 59.5 °F 94% 30.02 in 10.0 mi Calm Calm - N/A   Clear
2:35 AM 60.1 °F - 58.5 °F 94% 30.02 in 7.0 mi Calm Calm - N/A   Clear
2:55 AM 58.6 °F - 56.7 °F 93% 30.03 in 2.5 mi Calm Calm - N/A   Clear
3:15 AM 58.3 °F - 56.5 °F 94% 30.02 in 2.5 mi Calm Calm - N/A   Clear
3:35 AM 58.1 °F - 56.3 °F 94% 30.02 in 0.2 mi Calm Calm - N/A Fog Fog
3:55 AM 58.1 °F - 56.3 °F 94% 30.02 in 0.2 mi Calm Calm - N/A Fog Fog
4:15 AM 56.3 °F - 54.7 °F 94% 30.02 in 0.2 mi Calm Calm - N/A Fog Fog
4:35 AM 57.2 °F - 55.6 °F 94% 30.02 in 0.8 mi Calm Calm - N/A   Mostly Cloudy
4:55 AM 57.0 °F - 55.4 °F 94% 30.02 in 1.0 mi Calm Calm - N/A   Mist
5:15 AM 56.3 °F - 54.7 °F 94% 30.03 in 3.0 mi Calm Calm - N/A   Clear
5:35 AM 56.1 °F - 54.7 °F 95% 30.03 in 1.0 mi Calm Calm - N/A   Mist
5:55 AM 56.1 °F - 54.5 °F 94% 30.04 in 1.0 mi Calm Calm - N/A   Mist
6:00 AM 55.4 °F - 55.4 °F 100% 30.04 in 5.0 mi Calm Calm - N/A   Scattered Clouds
7:07 AM 55.4 °F - 53.6 °F 94% 30.05 in 1.0 mi Calm Calm - N/A   Scattered Clouds
7:53 AM 53.6 °F - 53.6 °F 100% 30.05 in 0.2 mi SSE 3.5 mph - N/A Fog Fog
8:50 AM 60.8 °F - 59.0 °F 94% 30.06 in 1.0 mi Calm Calm - N/A   Mist
9:01 AM 62.6 °F - 60.8 °F 94% 30.07 in 4.0 mi Calm Calm - N/A   Clear
9:45 AM 69.8 °F - 66.2 °F 88% 30.07 in 7.0 mi West 4.6 mph - N/A   Clear
10:45 AM 75.2 °F - 64.4 °F 69% 30.09 in 10.0 mi WNW 10.4 mph - N/A   Clear
11:58 AM 78.8 °F - 64.4 °F 61% 30.07 in 10.0 mi WNW 5.8 mph - N/A   Clear
12:56 PM 82.4 °F 83.4 °F 62.6 °F 51% 30.05 in 10.0 mi West 5.8 mph - N/A   Scattered Clouds
1:45 PM 82.4 °F 82.9 °F 60.8 °F 48% 30.02 in 10.0 mi West 3.5 mph - N/A   Scattered Clouds
2:50 PM 84.2 °F 83.5 °F 57.2 °F 40% 29.99 in 10.0 mi SW 4.6 mph - N/A   Clear
3:47 PM 84.2 °F 83.0 °F 55.4 °F 37% 29.99 in 10.0 mi WSW 6.9 mph - N/A   Clear
4:50 PM 82.4 °F 82.5 °F 59.0 °F 45% 29.98 in 10.0 mi SSW 6.9 mph - N/A   Clear
5:50 PM 80.6 °F 82.3 °F 64.4 °F 58% 29.99 in 10.0 mi SSW 11.5 mph - N/A   Clear
6:50 PM 75.2 °F - 62.6 °F 65% 30.00 in 10.0 mi SSW 6.9 mph - N/A   Clear
7:50 PM 71.6 °F - 64.4 °F 78% 30.02 in 10.0 mi SSW 4.6 mph - N/A   Clear
8:50 PM 66.2 °F - 62.6 °F 88% 30.02 in 10.0 mi Calm Calm - N/A   Clear
9:50 PM 69.8 °F - 66.2 °F 88% 30.03 in 10.0 mi SSW 5.8 mph - N/A   Clear
10:15 PM 68.9 °F - 66.2 °F 91% 30.03 in 10.0 mi SSW 5.8 mph - N/A   Clear
10:35 PM 68.9 °F - 66.0 °F 90% 30.03 in 10.0 mi Calm Calm - N/A   Clear
10:55 PM 68.7 °F - 66.0 °F 91% 30.04 in 10.0 mi SSW 3.5 mph - N/A   Clear
11:15 PM 68.5 °F - 66.2 °F 92% 30.03 in 7.0 mi SSW 5.8 mph - N/A   Clear
11:35 PM 68.7 °F - 66.2 °F 92% 30.03 in 7.0 mi SSW 5.8 mph - N/A   Clear
11:55 PM 69.1 °F - 66.6 °F 92% 30.03 in 10.0 mi SSW 5.8 mph - N/A   Clear